Fort Benning, AL

3:38 PM CDT on May 26, 2017 (GMT -0500)
Lawson Army Air Field

Weather History for KLSF - January, 2013

Change the Weather History Date:

Friday, January 4, 2013

  Actual Average Record
Temperature  
Mean Temperature 40 °F -  
Max Temperature 57 °F 57 °F 78 °F (1997)
Min Temperature 24 °F 32 °F 15 °F (2002)
Degree Days  
Heating Degree Days 24    
Moisture  
Dew Point 28 °F    
Average Humidity 91    
Maximum Humidity 100    
Minimum Humidity 26    
Precipitation  
Precipitation 0.00 in - - ()
Sea Level Pressure  
Sea Level Pressure 30.34 in    
Wind  
Wind Speed 1 mph (SE)    
Max Wind Speed 7 mph    
Max Gust Speed -    
Visibility 4 miles    
Events Fog    
Averages and records for this station are not official NWS values.
T = Trace of Precipitation, MM = Missing Value Source: NWS Daily Summary

Daily Weather History Graph

Daily Weather History Graph

Search for Another Location

Airport or City:

Trip Planner

Search our weather history database for the weather conditions in past years. The results will help you decide how hot, cold, wet, or windy it might be!

Date:

Astronomy

Jan. 04, 2013 Rise Set
Actual Time 7:41 AM EST 5:48 PM EST
Civil Twilight 7:14 AM EST 6:15 PM EST
Nautical Twilight 6:44 AM EST 6:45 PM EST
Astronomical Twilight 6:14 AM EST 7:15 PM EST
Moon No Moon Rise 11:50 AM EST (1/4)
Length of Visible Light 11h 00m
Length of Day
10h 06m
Waning Gibbous, 55% of the Moon is Illuminated
Jan 4
Waning Gibbous
Jan 4
Last Quarter
Jan 11
New
Jan 18
First Quarter
Jan 26
Full

Hourly Weather History & Observations

Time (EST) Temp. Windchill Dew Point Humidity Pressure Visibility Wind Dir Wind Speed Gust Speed Precip Events Conditions
12:34 AM 30.2 °F - 30.2 °F 100% 30.32 in 2.5 mi Calm Calm - N/A   Clear
12:36 AM 30.2 °F - 30.2 °F 100% 30.32 in 1.5 mi Calm Calm - N/A   Clear
12:37 AM 30.2 °F 26.7 °F 30.2 °F 100% 30.32 in 1.2 mi SE 3.5 mph - N/A   Clear
12:38 AM 30.2 °F 26.7 °F 30.2 °F 100% 30.33 in 1.2 mi SE 3.5 mph - N/A   Clear
12:40 AM 30.2 °F 26.7 °F 30.2 °F 100% 30.32 in 1.2 mi SE 3.5 mph - N/A   Clear
12:43 AM 30.2 °F 25.4 °F 30.2 °F 100% 30.33 in 1.2 mi SE 4.6 mph - N/A   Clear
12:44 AM 30.2 °F 25.4 °F 30.2 °F 100% 30.32 in 1.5 mi SE 4.6 mph - N/A   Clear
12:45 AM 30.2 °F 26.7 °F 30.2 °F 100% 30.32 in 2.0 mi SE 3.5 mph - N/A   Clear
12:47 AM 30.2 °F 26.7 °F 30.2 °F 100% 30.32 in 4.0 mi SE 3.5 mph - N/A   Clear
12:52 AM 30.2 °F 26.7 °F 28.4 °F 93% 30.33 in 7.0 mi SE 3.5 mph - N/A   Clear
12:55 AM 29.7 °F - 29.1 °F 98% 30.32 in 9.0 mi Calm Calm - N/A   Clear
1:41 AM 28.4 °F - 26.6 °F 93% 30.32 in 5.0 mi Calm Calm - N/A   Clear
1:55 AM 28.8 °F - 28.4 °F 99% 30.32 in 3.0 mi Calm Calm - N/A   Clear
2:06 AM 28.4 °F - 28.4 °F 100% 30.32 in 2.5 mi Calm Calm - N/A   Clear
2:07 AM 28.4 °F - 28.4 °F 100% 30.32 in 1.5 mi Calm Calm - N/A   Clear
2:08 AM 28.4 °F - 28.4 °F 100% 30.32 in 1.0 mi Calm Calm - N/A   Clear
2:09 AM 28.4 °F - 28.4 °F 100% 30.32 in 0.8 mi Calm Calm - N/A   Clear
2:10 AM 28.4 °F - 26.6 °F 93% 30.32 in 0.5 mi Calm Calm - N/A Fog Light Freezing Fog
2:14 AM 26.6 °F 22.6 °F 26.6 °F 100% 30.32 in 0.2 mi NW 3.5 mph - N/A Fog Light Freezing Fog
2:15 AM 26.6 °F 22.6 °F 26.6 °F 100% 30.32 in 0.2 mi NW 3.5 mph - N/A Fog Light Freezing Fog
2:29 AM 26.6 °F - 24.8 °F 93% 30.32 in 0.5 mi Calm Calm - N/A Fog Light Freezing Fog
2:30 AM 26.6 °F - 24.8 °F 93% 30.32 in 0.5 mi Calm Calm - N/A Fog Light Freezing Fog
2:31 AM 26.6 °F - 26.6 °F 100% 30.32 in 0.5 mi Calm Calm - N/A Fog Light Freezing Fog
2:32 AM 26.6 °F - 26.6 °F 100% 30.32 in 0.5 mi Calm Calm - N/A Fog Light Freezing Fog
2:33 AM 26.6 °F - 26.6 °F 100% 30.32 in 0.8 mi Calm Calm - N/A   Clear
2:35 AM 26.6 °F - 26.6 °F 100% 30.32 in 1.0 mi Calm Calm - N/A   Clear
2:36 AM 26.6 °F - 26.6 °F 100% 30.32 in 1.2 mi Calm Calm - N/A   Clear
2:37 AM 26.6 °F - 26.6 °F 100% 30.32 in 1.5 mi Calm Calm - N/A   Clear
2:38 AM 26.6 °F - 26.6 °F 100% 30.32 in 2.0 mi Calm Calm - N/A   Clear
2:43 AM 26.6 °F - 26.6 °F 100% 30.32 in 1.8 mi Calm Calm - N/A   Clear
2:44 AM 26.6 °F - 26.6 °F 100% 30.32 in 1.5 mi Calm Calm - N/A   Clear
2:46 AM 26.6 °F 22.6 °F 26.6 °F 100% 30.32 in 1.2 mi West 3.5 mph - N/A   Clear
2:47 AM 26.6 °F - 26.6 °F 100% 30.32 in 1.2 mi Calm Calm - N/A   Clear
2:49 AM 26.6 °F - 26.6 °F 100% 30.32 in 1.2 mi Calm Calm - N/A   Clear
2:50 AM 26.6 °F - 26.6 °F 100% 30.32 in 1.5 mi Calm Calm - N/A   Clear
2:52 AM 26.6 °F - 26.6 °F 100% 30.32 in 2.0 mi Calm Calm - N/A   Clear
2:53 AM 26.6 °F - 26.6 °F 100% 30.32 in 2.5 mi Calm Calm - N/A   Clear
2:54 AM 26.6 °F - 26.6 °F 100% 30.32 in 3.0 mi Calm Calm - N/A   Clear
2:55 AM 27.1 °F - 26.4 °F 97% 30.32 in 4.0 mi Calm Calm - N/A   Clear
3:55 AM 28.9 °F - 28.0 °F 96% 30.34 in 10.0 mi Calm Calm - N/A   Clear
4:55 AM 28.2 °F 24.4 °F 27.5 °F 97% 30.34 in 9.0 mi SE 3.5 mph - N/A   Clear
5:20 AM 28.4 °F - 28.4 °F 100% 30.33 in 8.0 mi Calm Calm - N/A   Clear
5:47 AM 28.4 °F - 26.6 °F 93% 30.33 in 7.0 mi Calm Calm - N/A   Clear
5:55 AM 26.6 °F - 25.9 °F 97% 30.33 in 3.0 mi Calm Calm - N/A   Clear
5:56 AM 26.6 °F - 26.6 °F 100% 30.34 in 2.5 mi Calm Calm - N/A   Clear
5:58 AM 26.6 °F - 24.8 °F 93% 30.34 in 1.8 mi Calm Calm - N/A   Clear
5:59 AM 26.6 °F - 24.8 °F 93% 30.34 in 1.2 mi Calm Calm - N/A   Clear
6:00 AM 24.8 °F - 24.8 °F 100% 30.34 in 1.0 mi Calm Calm - N/A   Clear
6:01 AM 24.8 °F - 24.8 °F 100% 30.34 in 1.0 mi Calm Calm - N/A   Clear
6:02 AM 24.8 °F - 24.8 °F 100% 30.34 in 0.8 mi Calm Calm - N/A   Clear
6:09 AM 26.6 °F - 26.6 °F 100% 30.34 in 1.0 mi Calm Calm - N/A   Clear
6:10 AM 26.6 °F - 26.6 °F 100% 30.34 in 1.2 mi Calm Calm - N/A   Clear
6:11 AM 26.6 °F - 26.6 °F 100% 30.35 in 1.5 mi Calm Calm - N/A   Clear
6:12 AM 26.6 °F - 26.6 °F 100% 30.35 in 2.0 mi Calm Calm - N/A   Clear
6:14 AM 26.6 °F - 26.6 °F 100% 30.35 in 3.0 mi Calm Calm - N/A   Clear
6:24 AM 26.6 °F - 26.6 °F 100% 30.35 in 7.0 mi Calm Calm - N/A   Clear
6:55 AM 25.9 °F - 24.8 °F 96% 30.34 in 10.0 mi Calm Calm - N/A   Clear
7:55 AM 25.2 °F 18.3 °F 24.4 °F 97% 30.36 in 8.0 mi NW 5.8 mph - N/A   Clear
8:55 AM 32.4 °F 27.9 °F 29.3 °F 88% 30.38 in 10.0 mi NW 4.6 mph - N/A   Clear
9:55 AM 38.3 °F 33.2 °F 30.0 °F 72% 30.41 in 10.0 mi North 6.9 mph - N/A   Clear
10:55 AM 43.2 °F 41.5 °F 31.3 °F 63% 30.42 in 10.0 mi NW 3.5 mph - N/A   Clear
11:55 AM 47.1 °F - 32.4 °F 57% 30.40 in 10.0 mi Calm Calm - N/A   Clear
12:55 PM 50.2 °F - 33.1 °F 52% 30.36 in 10.0 mi Variable 3.5 mph - N/A   Clear
1:55 PM 54.0 °F - 31.8 °F 43% 30.34 in 10.0 mi Calm Calm - N/A   Clear
2:55 PM 55.9 °F - 24.3 °F 29% 30.32 in 10.0 mi Variable 4.6 mph - N/A   Clear
3:55 PM 57.6 °F - 22.6 °F 26% 30.32 in 10.0 mi NNW 4.6 mph - N/A   Clear
4:55 PM 56.1 °F - 24.3 °F 29% 30.32 in 10.0 mi NNW 4.6 mph - N/A   Clear
5:55 PM 46.2 °F - 27.1 °F 47% 30.33 in 10.0 mi Calm Calm - N/A   Clear
6:55 PM 41.7 °F - 32.4 °F 69% 30.35 in 10.0 mi Calm Calm - N/A   Clear
7:55 PM 39.9 °F - 32.0 °F 73% 30.37 in 10.0 mi Calm Calm - N/A   Clear
8:55 PM 36.9 °F - 31.8 °F 82% 30.38 in 10.0 mi Calm Calm - N/A   Clear
9:55 PM 33.8 °F - 29.8 °F 85% 30.39 in 10.0 mi Calm Calm - N/A   Clear
10:55 PM 33.8 °F - 30.4 °F 87% 30.39 in 10.0 mi Calm Calm - N/A   Clear
11:55 PM 32.2 °F - 29.7 °F 90% 30.38 in 10.0 mi Calm Calm - N/A   Clear